Torna al catalogo

FENGYUN 1C DEB

AttivoSSO
NORAD 30708·DEBRIS·🇨🇳 China

Lanciato May 10, 1999 da Taiyuan Satellite Launch Center

Loading…

Prossimi Passaggi (prossime 24 ore)

TLE

AggiornatoSource: Space-Track

Epoca: Sep 13, 2026, 23:33 UTC

1 30708U 99025ARS 26256.98192266  .00000129  00000-0  93197-4 0  9992
2 30708  98.6836 267.1363 0009145 132.2853 258.7676 14.12320234  6785

Traccia FENGYUN 1C DEB in tempo reale con AllMySat

Download on the App Store